,,Stat6,,Stat2,,Stat8,,Stat9,,Stat10,,Wind1,,Wind1,
time,status,PA1M_AVG,status,PR1M_SUM,status,RH1M_AVG,status,SR1M_AVG,status,TA1M_AVG,status,W1dAve1m,status,W1sAve1m,
2008-01-03, 00:00:00,VALID,919.137,VALID,0,VALID,93.0459,VALID,-0.0849042,VALID,20.1321,VALID,10,VALID,0.157366,
2008-01-03, 00:01:00,VALID,919.129,VALID,0,VALID,93.1476,VALID,-0.118866,VALID,20.1227,VALID,6,VALID,0.964143,
2008-01-03, 00:02:00,VALID,919.122,VALID,0,VALID,92.9734,VALID,-0.101885,VALID,20.1351,VALID,10,VALID,1.02725,
2008-01-03, 00:03:00,VALID,919.117,VALID,0,VALID,92.6911,VALID,-0.101885,VALID,20.1646,VALID,8,VALID,1.14583,
2008-01-03, 00:04:00,VALID,919.097,VALID,0,VALID,92.4673,VALID,-0.101885,VALID,20.1863,VALID,23,VALID,1.36795,
2008-01-03, 00:05:00,VALID,919.089,VALID,0,VALID,92.2053,VALID,-0.101885,VALID,20.1898,VALID,8,VALID,0.994549,
2008-01-03, 00:06:00,VALID,919.091,VALID,0,VALID,92.2524,VALID,-0.101885,VALID,20.2035,VALID,2,VALID,1.09245,
2008-01-03, 00:07:00,VALID,919.083,VALID,0,VALID,91.9942,VALID,-0.101885,VALID,20.226,VALID,18,VALID,1.31042,
2008-01-03, 00:08:00,VALID,919.071,VALID,0,VALID,92.04,VALID,-0.0679233,VALID,20.2033,VALID,10,VALID,1.35621,
2008-01-03, 00:09:00,VALID,919.069,VALID,0,VALID,92.1112,VALID,-0.101885,VALID,20.1973,VALID,16,VALID,1.50449,
2008-01-03, 00:10:00,VALID,919.064,VALID,0,VALID,92.1875,VALID,-0.101885,VALID,20.1546,VALID,18,VALID,0.773819,
2008-01-03, 00:11:00,VALID,919.05,VALID,0,VALID,92.3541,VALID,-0.0849042,VALID,20.1122,VALID,16,VALID,0.945898,
2008-01-03, 00:12:00,VALID,919.052,VALID,0,VALID,92.6288,VALID,-0.0849042,VALID,20.0894,VALID,13,VALID,0.70625,
2008-01-03, 00:13:00,VALID,919.035,VALID,0,VALID,92.719,VALID,-0.0679233,VALID,20.073,VALID,12,VALID,0.764509,
2008-01-03, 00:14:00,VALID,919.019,VALID,0,VALID,92.7852,VALID,-0.101885,VALID,20.0508,VALID,10,VALID,0.884673,
2008-01-03, 00:15:00,VALID,919.009,VALID,0,VALID,92.9963,VALID,-0.0849042,VALID,20.031,VALID,13,VALID,0.993712,
2008-01-03, 00:16:00,VALID,919,VALID,0,VALID,92.8716,VALID,-0.0849042,VALID,19.9956,VALID,19,VALID,1.06946,
2008-01-03, 00:17:00,VALID,918.978,VALID,0,VALID,93.1756,VALID,-0.0849042,VALID,19.9694,VALID,10,VALID,1.37539,
2008-01-03, 00:18:00,VALID,918.966,VALID,0,VALID,93.1794,VALID,-0.101885,VALID,19.9893,VALID,16,VALID,0.972917,
2008-01-03, 00:19:00,VALID,918.959,VALID,0,VALID,93.112,VALID,-0.101885,VALID,19.9921,VALID,16,VALID,1.21205,
2008-01-03, 00:20:00,VALID,918.949,VALID,0,VALID,93.0039,VALID,-0.101885,VALID,19.9821,VALID,16,VALID,0.997796,
2008-01-03, 00:21:00,VALID,918.942,VALID,0,VALID,93.0878,VALID,-0.101885,VALID,19.9699,VALID,19,VALID,1.06309,
2008-01-03, 00:22:00,VALID,918.935,VALID,0,VALID,93.1654,VALID,-0.0849042,VALID,19.9464,VALID,22,VALID,0.915179,
2008-01-03, 00:23:00,VALID,918.931,VALID,0,VALID,93.2302,VALID,-0.0849042,VALID,19.9075,VALID,22,VALID,0.721726,
2008-01-03, 00:24:00,VALID,918.923,VALID,0,VALID,93.4604,VALID,-0.0849042,VALID,19.895,VALID,11,VALID,0.933036,
2008-01-03, 00:25:00,VALID,918.916,VALID,0,VALID,93.5074,VALID,-0.118866,VALID,19.9047,VALID,15,VALID,1.00545,
2008-01-03, 00:26:00,VALID,918.907,VALID,0,VALID,93.4464,VALID,-0.0679233,VALID,19.885,VALID,16,VALID,1.07127,
2008-01-03, 00:27:00,VALID,918.902,VALID,0,VALID,93.4922,VALID,-0.0339617,VALID,19.871,VALID,14,VALID,1.32241,
2008-01-03, 00:28:00,VALID,918.894,VALID,0,VALID,93.4439,VALID,-0.0169808,VALID,19.88,VALID,15,VALID,1.19949,
2008-01-03, 00:29:00,VALID,918.89,VALID,0,VALID,93.2404,VALID,0,VALID,19.8935,VALID,18,VALID,1.125,
2008-01-03, 00:30:00,VALID,918.874,VALID,0,VALID,93.1527,VALID,0,VALID,19.8867,VALID,8,VALID,1.01145,
2008-01-03, 00:31:00,VALID,918.857,VALID,0,VALID,93.0891,VALID,0.0169808,VALID,19.8957,VALID,11,VALID,1.29611,
2008-01-03, 00:32:00,VALID,918.843,VALID,0,VALID,92.9416,VALID,0,VALID,19.9187,VALID,12,VALID,1.15179,
2008-01-03, 00:33:00,VALID,918.82,VALID,0,VALID,92.5906,VALID,0.0169808,VALID,19.9414,VALID,23,VALID,1.73928,
2008-01-03, 00:34:00,VALID,918.807,VALID,0,VALID,92.3198,VALID,0,VALID,19.9738,VALID,14,VALID,1.19371,
2008-01-03, 00:35:00,VALID,918.788,VALID,0,VALID,92.2066,VALID,-0.0169808,VALID,19.9998,VALID,10,VALID,1.15199,
2008-01-03, 00:36:00,VALID,918.786,VALID,0,VALID,92.0642,VALID,0,VALID,20.029,VALID,12,VALID,1.25335,
2008-01-03, 00:37:00,VALID,918.772,VALID,0,VALID,91.9014,VALID,0.0169808,VALID,20.0487,VALID,15,VALID,0.988567,
2008-01-03, 00:38:00,VALID,918.76,VALID,0,VALID,91.8493,VALID,0,VALID,20.0517,VALID,13,VALID,0.915838,
2008-01-03, 00:39:00,VALID,918.743,VALID,0,VALID,91.7628,VALID,0,VALID,20.0614,VALID,15,VALID,1.25052,
2008-01-03, 00:40:00,VALID,918.737,VALID,0,VALID,91.6801,VALID,0,VALID,20.0872,VALID,17,VALID,1.11646,
2008-01-03, 00:41:00,VALID,918.729,VALID,0,VALID,91.5314,VALID,0.0339617,VALID,20.1034,VALID,15,VALID,1.10828,
2008-01-03, 00:42:00,VALID,918.725,VALID,0,VALID,91.4474,VALID,-0.0509425,VALID,20.0947,VALID,22,VALID,1.19822,
2008-01-03, 00:43:00,VALID,918.717,VALID,0,VALID,91.5339,VALID,-0.0849042,VALID,20.0889,VALID,18,VALID,1.17791,
2008-01-03, 00:44:00,VALID,918.698,VALID,0,VALID,91.6344,VALID,-0.101885,VALID,20.0657,VALID,17,VALID,0.991406,
2008-01-03, 00:45:00,VALID,918.686,VALID,0,VALID,91.7437,VALID,-0.101885,VALID,20.0762,VALID,14,VALID,1.13228,
2008-01-03, 00:46:00,VALID,918.682,VALID,0,VALID,91.7641,VALID,-0.0679233,VALID,20.076,VALID,14,VALID,1.00298,
2008-01-03, 00:47:00,VALID,918.668,VALID,0,VALID,91.6878,VALID,-0.101885,VALID,20.0789,VALID,13,VALID,1.24379,
2008-01-03, 00:48:00,VALID,918.667,VALID,0,VALID,91.6051,VALID,-0.101885,VALID,20.1081,VALID,19,VALID,1.27134,
2008-01-03, 00:49:00,VALID,918.641,VALID,0,VALID,91.5848,VALID,-0.101885,VALID,20.1017,VALID,17,VALID,1.04632,
2008-01-03, 00:50:00,VALID,918.613,VALID,0,VALID,91.5746,VALID,-0.101885,VALID,20.1087,VALID,15,VALID,1.06922,
2008-01-03, 00:51:00,VALID,918.588,VALID,0,VALID,91.6178,VALID,-0.0849042,VALID,20.1214,VALID,14,VALID,0.794792,
2008-01-03, 00:52:00,VALID,918.562,VALID,0,VALID,91.5403,VALID,-0.0849042,VALID,20.1046,VALID,10,VALID,0.992969,
2008-01-03, 00:53:00,VALID,918.54,VALID,0,VALID,91.5326,VALID,-0.0679233,VALID,20.1149,VALID,16,VALID,1.05011,
2008-01-03, 00:54:00,VALID,918.512,VALID,0,VALID,91.6013,VALID,-0.101885,VALID,20.1114,VALID,16,VALID,0.845749,
2008-01-03, 00:55:00,VALID,918.502,VALID,0,VALID,91.6814,VALID,-0.0679233,VALID,20.0984,VALID,17,VALID,0.87207,
2008-01-03, 00:56:00,VALID,918.477,VALID,0,VALID,91.7043,VALID,-0.0849042,VALID,20.0887,VALID,14,VALID,0.958576,
2008-01-03, 00:57:00,VALID,918.455,VALID,0,VALID,91.6598,VALID,0,VALID,20.0944,VALID,15,VALID,1.34468,
2008-01-03, 00:58:00,VALID,918.427,VALID,0,VALID,91.4894,VALID,0.0169808,VALID,20.1101,VALID,19,VALID,1.55178,
2008-01-03, 00:59:00,VALID,918.399,VALID,0,VALID,91.45,VALID,0.0169808,VALID,20.1131,VALID,21,VALID,1.17168,
2008-01-03, 01:00:00,VALID,918.384,VALID,0,VALID,91.4754,VALID,0,VALID,20.0839,VALID,25,VALID,1.18668,
2008-01-03, 01:01:00,VALID,918.38,VALID,0,VALID,91.5937,VALID,0,VALID,20.055,VALID,28,VALID,1.12718,
2008-01-03, 01:02:00,VALID,918.354,VALID,0,VALID,91.6865,VALID,0.0169808,VALID,20.0223,VALID,19,VALID,0.909549,
2008-01-03, 01:03:00,VALID,918.345,VALID,0,VALID,91.8251,VALID,0,VALID,19.9801,VALID,13,VALID,0.693266,
2008-01-03, 01:04:00,VALID,918.333,VALID,0,VALID,92.0375,VALID,0,VALID,19.9152,VALID,21,VALID,0.934482,
2008-01-03, 01:05:00,VALID,918.331,VALID,0,VALID,92.2702,VALID,0,VALID,19.8867,VALID,37,VALID,0.955788,
2008-01-03, 01:06:00,VALID,918.332,VALID,0,VALID,92.4469,VALID,0.0169808,VALID,19.8446,VALID,36,VALID,1.01526,
2008-01-03, 01:07:00,VALID,918.324,VALID,0,VALID,92.6224,VALID,0,VALID,19.8086,VALID,40,VALID,1.15716,
2008-01-03, 01:08:00,VALID,918.326,VALID,0,VALID,92.7407,VALID,0.0169808,VALID,19.7789,VALID,36,VALID,1.16882,
2008-01-03, 01:09:00,VALID,918.333,VALID,0,VALID,92.8042,VALID,0.0169808,VALID,19.7632,VALID,34,VALID,0.764535,
2008-01-03, 01:10:00,VALID,918.333,VALID,0,VALID,92.8742,VALID,0.0169808,VALID,19.7435,VALID,34,VALID,0.512784,
2008-01-03, 01:11:00,VALID,918.32,VALID,0,VALID,92.9365,VALID,0,VALID,19.7315,VALID,34,VALID,0.445499,
2008-01-03, 01:12:00,VALID,918.311,VALID,0,VALID,93.0522,VALID,0,VALID,19.6978,VALID,34,VALID,0.18093,
2008-01-03, 01:13:00,VALID,918.3,VALID,0,VALID,93.1527,VALID,0.0169808,VALID,19.6856,VALID,34,VALID,0,
2008-01-03, 01:14:00,VALID,918.297,VALID,0,VALID,93.3014,VALID,0,VALID,19.6496,VALID,34,VALID,0,
2008-01-03, 01:15:00,VALID,918.275,VALID,0,VALID,93.435,VALID,0.0169808,VALID,19.6362,VALID,34,VALID,0,
2008-01-03, 01:16:00,VALID,918.263,VALID,0,VALID,93.5011,VALID,0.0339617,VALID,19.6172,VALID,34,VALID,0,
2008-01-03, 01:17:00,VALID,918.244,VALID,0,VALID,93.5596,VALID,0.0339617,VALID,19.6005,VALID,34,VALID,0,
2008-01-03, 01:18:00,VALID,918.245,VALID,0,VALID,93.4731,VALID,0.0339617,VALID,19.5778,VALID,47,VALID,0,
2008-01-03, 01:19:00,VALID,918.237,VALID,0,VALID,93.5481,VALID,0,VALID,19.4999,VALID,154,VALID,0.303354,
2008-01-03, 01:20:00,VALID,918.221,VALID,0,VALID,93.7173,VALID,-0.0339617,VALID,19.429,VALID,169,VALID,0.452567,
2008-01-03, 01:21:00,VALID,918.206,VALID,0,VALID,94.0962,VALID,0.0339617,VALID,19.3474,VALID,171,VALID,0,
2008-01-03, 01:22:00,VALID,918.195,VALID,0,VALID,94.7714,VALID,0,VALID,19.293,VALID,171,VALID,0.00111607,
2008-01-03, 01:23:00,VALID,918.189,VALID,0,VALID,95.2762,VALID,0,VALID,19.2371,VALID,171,VALID,0,
2008-01-03, 01:24:00,VALID,918.169,VALID,0,VALID,95.5891,VALID,0,VALID,19.1922,VALID,173,VALID,0.122456,
2008-01-03, 01:25:00,VALID,918.144,VALID,0,VALID,95.9311,VALID,0,VALID,19.1266,VALID,177,VALID,0.00285823,
2008-01-03, 01:26:00,VALID,918.123,VALID,0,VALID,96.3482,VALID,0.0339617,VALID,19.0947,VALID,177,VALID,0.0238095,
2008-01-03, 01:27:00,VALID,918.115,VALID,0,VALID,96.6699,VALID,0,VALID,19.0627,VALID,177,VALID,0,
2008-01-03, 01:28:00,VALID,918.112,VALID,0,VALID,96.8543,VALID,0.0679233,VALID,19.0233,VALID,177,VALID,0,
2008-01-03, 01:29:00,VALID,918.1,VALID,0,VALID,97.0107,VALID,0.0679233,VALID,18.9841,VALID,177,VALID,0,
2008-01-03, 01:30:00,VALID,918.095,VALID,0,VALID,97.2282,VALID,0.0509425,VALID,18.9582,VALID,181,VALID,0,
2008-01-03, 01:31:00,VALID,918.097,VALID,0,VALID,97.396,VALID,0,VALID,18.9485,VALID,198,VALID,0,
2008-01-03, 01:32:00,VALID,918.075,VALID,0,VALID,97.485,VALID,0.0679233,VALID,18.9355,VALID,198,VALID,0,
2008-01-03, 01:33:00,VALID,918.061,VALID,0,VALID,97.5893,VALID,0.0169808,VALID,18.9195,VALID,198,VALID,0,
2008-01-03, 01:34:00,VALID,918.043,VALID,0,VALID,97.7966,VALID,0.0169808,VALID,18.9193,VALID,206,VALID,0,
2008-01-03, 01:35:00,VALID,918.025,VALID,0,VALID,98.0852,VALID,0.0169808,VALID,18.9285,VALID,216,VALID,0,
2008-01-03, 01:36:00,VALID,918.002,VALID,0,VALID,98.2989,VALID,0.0339617,VALID,18.9712,VALID,217,VALID,0.318784,
2008-01-03, 01:37:00,VALID,917.986,VALID,0,VALID,98.6078,VALID,0,VALID,19.0166,VALID,223,VALID,0.441592,
2008-01-03, 01:38:00,VALID,917.957,VALID,0,VALID,98.674,VALID,0.0509425,VALID,19.0587,VALID,214,VALID,0.470084,
2008-01-03, 01:39:00,VALID,917.96,VALID,0,VALID,98.6231,VALID,0.0339617,VALID,19.1009,VALID,222,VALID,0.233445,
2008-01-03, 01:40:00,VALID,917.93,VALID,0,VALID,98.5201,VALID,0.0509425,VALID,19.1171,VALID,231,VALID,0,
2008-01-03, 01:41:00,VALID,917.93,VALID,0,VALID,98.4196,VALID,0,VALID,19.1236,VALID,230,VALID,0,
2008-01-03, 01:42:00,VALID,917.914,VALID,0,VALID,98.3205,VALID,-0.0169808,VALID,19.1148,VALID,221,VALID,0,
2008-01-03, 01:43:00,VALID,917.904,VALID,0,VALID,98.07,VALID,-0.0849042,VALID,19.0764,VALID,221,VALID,0,
2008-01-03, 01:44:00,VALID,917.896,VALID,0,VALID,98.0305,VALID,-0.0849042,VALID,19.044,VALID,221,VALID,0,
2008-01-03, 01:45:00,VALID,917.881,VALID,0,VALID,98.0814,VALID,-0.0849042,VALID,19.0118,VALID,221,VALID,0,
2008-01-03, 01:46:00,VALID,917.879,VALID,0,VALID,97.8589,VALID,-0.0679233,VALID,18.9559,VALID,221,VALID,0,
2008-01-03, 01:47:00,VALID,917.87,VALID,0,VALID,97.7114,VALID,-0.0339617,VALID,18.8848,VALID,221,VALID,0,
2008-01-03, 01:48:00,VALID,917.864,VALID,0,VALID,97.8487,VALID,-0.0169808,VALID,18.8229,VALID,221,VALID,0,
2008-01-03, 01:49:00,VALID,917.854,VALID,0,VALID,98.0267,VALID,-0.0849042,VALID,18.7875,VALID,208,VALID,0,
2008-01-03, 01:50:00,VALID,917.846,VALID,0,VALID,98.2785,VALID,-0.0339617,VALID,18.7812,VALID,207,VALID,0,
2008-01-03, 01:51:00,VALID,917.822,VALID,0,VALID,98.482,VALID,-0.0509425,VALID,18.7747,VALID,207,VALID,0,
2008-01-03, 01:52:00,VALID,917.813,VALID,0,VALID,98.735,VALID,-0.0509425,VALID,18.7842,VALID,207,VALID,0,
2008-01-03, 01:53:00,VALID,917.796,VALID,0,VALID,98.8901,VALID,-0.0509425,VALID,18.8137,VALID,203,VALID,0,
2008-01-03, 01:54:00,VALID,917.766,VALID,0,VALID,99.0377,VALID,-0.0679233,VALID,18.8461,VALID,188,VALID,0,
2008-01-03, 01:55:00,VALID,917.743,VALID,0,VALID,99.0644,VALID,-0.101885,VALID,18.885,VALID,182,VALID,0,
2008-01-03, 01:56:00,VALID,917.72,VALID,0,VALID,99.0173,VALID,-0.0849042,VALID,18.9304,VALID,173,VALID,0,
2008-01-03, 01:57:00,VALID,917.707,VALID,0,VALID,98.9372,VALID,-0.0679233,VALID,18.9529,VALID,152,VALID,0,
2008-01-03, 01:58:00,VALID,917.712,VALID,0,VALID,98.7528,VALID,-0.101885,VALID,18.9823,VALID,152,VALID,0,
2008-01-03, 01:59:00,VALID,917.721,VALID,0,VALID,98.6409,VALID,-0.0679233,VALID,18.9851,VALID,152,VALID,0,
2008-01-03, 02:00:00,VALID,917.712,VALID,0,VALID,98.4781,VALID,-0.0679233,VALID,18.9856,VALID,135,VALID,0.391513,
2008-01-03, 02:01:00,VALID,917.703,VALID,0,VALID,98.2899,VALID,-0.0509425,VALID,18.9534,VALID,135,VALID,0.677641,
2008-01-03, 02:02:00,VALID,917.693,VALID,0,VALID,98.3497,VALID,-0.0849042,VALID,18.9105,VALID,135,VALID,0.650298,
2008-01-03, 02:03:00,VALID,917.682,VALID,0,VALID,98.4883,VALID,-0.0679233,VALID,18.8848,VALID,135,VALID,0.600109,
2008-01-03, 02:04:00,VALID,917.667,VALID,0,VALID,98.6524,VALID,-0.0849042,VALID,18.8556,VALID,135,VALID,0.617932,
2008-01-03, 02:05:00,VALID,917.65,VALID,0,VALID,98.8126,VALID,-0.0849042,VALID,18.8331,VALID,135,VALID,0.540516,
2008-01-03, 02:06:00,VALID,917.628,VALID,0,VALID,98.8545,VALID,-0.0849042,VALID,18.7875,VALID,127,VALID,0.731712,
2008-01-03, 02:07:00,VALID,917.591,VALID,0,VALID,99.0071,VALID,-0.0849042,VALID,18.7421,VALID,126,VALID,0.632813,
2008-01-03, 02:08:00,VALID,917.575,VALID,0,VALID,99.0682,VALID,-0.0849042,VALID,18.6966,VALID,126,VALID,0.652716,
2008-01-03, 02:09:00,VALID,917.548,VALID,0,VALID,99.236,VALID,-0.0509425,VALID,18.6547,VALID,126,VALID,0.685014,
2008-01-03, 02:10:00,VALID,917.525,VALID,0,VALID,99.3428,VALID,-0.0509425,VALID,18.6158,VALID,126,VALID,0.470385,
2008-01-03, 02:11:00,VALID,917.502,VALID,0,VALID,99.4764,VALID,-0.0849042,VALID,18.5799,VALID,126,VALID,0,
2008-01-03, 02:12:00,VALID,917.479,VALID,0,VALID,99.7027,VALID,-0.0169808,VALID,18.5567,VALID,127,VALID,0.735491,
2008-01-03, 02:13:00,VALID,917.459,VALID,0,VALID,99.8693,VALID,-0.0169808,VALID,18.5435,VALID,123,VALID,0.779154,
2008-01-03, 02:14:00,VALID,917.446,VALID,0,VALID,99.9741,VALID,-0.118866,VALID,18.5257,VALID,120,VALID,0.850836,
2008-01-03, 02:15:00,VALID,917.432,VALID,0,VALID,99.9903,VALID,-0.101885,VALID,18.4731,VALID,119,VALID,0.755996,
2008-01-03, 02:16:00,VALID,917.435,VALID,0,VALID,100,VALID,-0.101885,VALID,18.4312,VALID,118,VALID,0.737233,
2008-01-03, 02:17:00,VALID,917.435,VALID,0,VALID,100,VALID,-0.135847,VALID,18.4149,VALID,118,VALID,0.78125,
2008-01-03, 02:18:00,VALID,917.435,VALID,0,VALID,100,VALID,-0.118866,VALID,18.4221,VALID,119,VALID,0.780449,
2008-01-03, 02:19:00,VALID,917.415,VALID,0,VALID,100,VALID,-0.118866,VALID,18.4054,VALID,121,VALID,0.81901,
2008-01-03, 02:20:00,VALID,917.415,VALID,0,VALID,100,VALID,-0.118866,VALID,18.3952,VALID,121,VALID,0.815358,
2008-01-03, 02:21:00,VALID,917.404,VALID,0,VALID,100,VALID,-0.118866,VALID,18.3693,VALID,116,VALID,0.903232,
2008-01-03, 02:22:00,VALID,917.382,VALID,0,VALID,100,VALID,-0.101885,VALID,18.3566,VALID,110,VALID,0.887576,
2008-01-03, 02:23:00,VALID,917.376,VALID,0,VALID,100,VALID,-0.0679233,VALID,18.3531,VALID,104,VALID,0.714558,
2008-01-03, 02:24:00,VALID,917.351,VALID,0,VALID,100,VALID,-0.0849042,VALID,18.3406,VALID,99,VALID,0.287861,
2008-01-03, 02:25:00,VALID,917.338,VALID,0,VALID,100,VALID,-0.101885,VALID,18.3206,VALID,110,VALID,0.587652,
2008-01-03, 02:26:00,VALID,917.309,VALID,0,VALID,100,VALID,-0.101885,VALID,18.3172,VALID,118,VALID,0.955788,
2008-01-03, 02:27:00,VALID,917.312,VALID,0,VALID,100,VALID,-0.101885,VALID,18.3269,VALID,118,VALID,0.907012,
2008-01-03, 02:28:00,VALID,917.304,VALID,0,VALID,100,VALID,-0.101885,VALID,18.3142,VALID,118,VALID,0.919271,
2008-01-03, 02:29:00,VALID,917.31,VALID,0,VALID,100,VALID,-0.135847,VALID,18.3044,VALID,118,VALID,0.944169,
2008-01-03, 02:30:00,VALID,917.322,VALID,0,VALID,100,VALID,-0.101885,VALID,18.2852,VALID,121,VALID,0.955171,
2008-01-03, 02:31:00,VALID,917.329,VALID,0,VALID,100,VALID,-0.0849042,VALID,18.285,VALID,125,VALID,0.974848,
2008-01-03, 02:32:00,VALID,917.338,VALID,0,VALID,100,VALID,-0.118866,VALID,18.2852,VALID,125,VALID,1.01804,
2008-01-03, 02:33:00,VALID,917.354,VALID,0,VALID,100,VALID,-0.0679233,VALID,18.2878,VALID,125,VALID,1.07641,
2008-01-03, 02:34:00,VALID,917.364,VALID,0,VALID,100,VALID,-0.0849042,VALID,18.2915,VALID,130,VALID,0.850977,
2008-01-03, 02:35:00,VALID,917.374,VALID,0,VALID,100,VALID,-0.118866,VALID,18.2722,VALID,132,VALID,0.897166,
2008-01-03, 02:36:00,VALID,917.388,VALID,0,VALID,100,VALID,-0.101885,VALID,18.2817,VALID,131,VALID,0.850713,
2008-01-03, 02:37:00,VALID,917.377,VALID,0,VALID,100,VALID,-0.101885,VALID,18.2984,VALID,131,VALID,0.933866,
2008-01-03, 02:38:00,VALID,917.374,VALID,0,VALID,100,VALID,-0.101885,VALID,18.285,VALID,139,VALID,0.899325,
2008-01-03, 02:39:00,VALID,917.356,VALID,0,VALID,100,VALID,-0.0849042,VALID,18.3049,VALID,146,VALID,0.963942,
2008-01-03, 02:40:00,VALID,917.344,VALID,0,VALID,100,VALID,-0.101885,VALID,18.3116,VALID,148,VALID,0.948219,
2008-01-03, 02:41:00,VALID,917.303,VALID,0,VALID,100,VALID,-0.101885,VALID,18.3079,VALID,156,VALID,0.926639,
2008-01-03, 02:42:00,VALID,917.295,VALID,0,VALID,100,VALID,-0.101885,VALID,18.3174,VALID,149,VALID,0.956445,
2008-01-03, 02:43:00,VALID,917.28,VALID,0,VALID,100,VALID,-0.0679233,VALID,18.3498,VALID,143,VALID,0.65191,
2008-01-03, 02:44:00,VALID,917.258,VALID,0,VALID,100,VALID,-0.0849042,VALID,18.3661,VALID,148,VALID,0.817871,
2008-01-03, 02:45:00,VALID,917.24,VALID,0,VALID,100,VALID,-0.0849042,VALID,18.3823,VALID,149,VALID,0.822856,
2008-01-03, 02:46:00,VALID,917.252,VALID,0,VALID,100,VALID,-0.101885,VALID,18.3691,VALID,149,VALID,0.780705,
2008-01-03, 02:47:00,VALID,917.236,VALID,0,VALID,100,VALID,-0.101885,VALID,18.379,VALID,154,VALID,0.951758,
2008-01-03, 02:48:00,VALID,917.217,VALID,0,VALID,100,VALID,-0.0509425,VALID,18.379,VALID,155,VALID,0.968555,
2008-01-03, 02:49:00,VALID,917.21,VALID,0,VALID,100,VALID,-0.0849042,VALID,18.3725,VALID,156,VALID,1.02184,
2008-01-03, 02:50:00,VALID,917.204,VALID,0,VALID,100,VALID,-0.101885,VALID,18.376,VALID,146,VALID,1.0718,
2008-01-03, 02:51:00,VALID,917.18,VALID,0,VALID,100,VALID,-0.0849042,VALID,18.3855,VALID,143,VALID,1.04427,
2008-01-03, 02:52:00,VALID,917.178,VALID,0,VALID,100,VALID,-0.118866,VALID,18.3885,VALID,138,VALID,0.839935,
2008-01-03, 02:53:00,VALID,917.173,VALID,0,VALID,100,VALID,-0.0849042,VALID,18.3952,VALID,138,VALID,0.889863,
2008-01-03, 02:54:00,VALID,917.166,VALID,0,VALID,100,VALID,-0.0849042,VALID,18.363,VALID,137,VALID,0.717226,
2008-01-03, 02:55:00,VALID,917.166,VALID,0,VALID,100,VALID,-0.118866,VALID,18.3079,VALID,137,VALID,0.769436,
2008-01-03, 02:56:00,VALID,917.151,VALID,0,VALID,100,VALID,-0.101885,VALID,18.2817,VALID,148,VALID,0.399325,
2008-01-03, 02:57:00,VALID,917.145,VALID,0,VALID,100,VALID,-0.0509425,VALID,18.2648,VALID,144,VALID,0.723958,
2008-01-03, 02:58:00,VALID,917.137,VALID,0,VALID,100,VALID,0,VALID,18.2347,VALID,139,VALID,0.811756,
2008-01-03, 02:59:00,VALID,917.121,VALID,0,VALID,100,VALID,0.0169808,VALID,18.2153,VALID,139,VALID,1.0684,
2008-01-03, 03:00:00,VALID,917.123,VALID,0,VALID,100,VALID,0.0339617,VALID,18.2118,VALID,138,VALID,1.33194,
2008-01-03, 03:01:00,VALID,917.098,VALID,0,VALID,100,VALID,0,VALID,18.2217,VALID,144,VALID,1.34698,
2008-01-03, 03:02:00,VALID,917.094,VALID,0,VALID,100,VALID,0,VALID,18.2507,VALID,137,VALID,1.38517,
2008-01-03, 03:03:00,VALID,917.078,VALID,0,VALID,100,VALID,0.0509425,VALID,18.2604,VALID,133,VALID,1.5873,
2008-01-03, 03:04:00,VALID,917.064,VALID,0,VALID,100,VALID,0.0509425,VALID,18.2347,VALID,131,VALID,1.33359,
2008-01-03, 03:05:00,VALID,917.041,VALID,0,VALID,100,VALID,0.0679233,VALID,18.1983,VALID,125,VALID,1.28582,
2008-01-03, 03:06:00,VALID,917.043,VALID,0,VALID,100,VALID,0.0339617,VALID,18.1761,VALID,131,VALID,1.36942,
2008-01-03, 03:07:00,VALID,917.02,VALID,0,VALID,100,VALID,0.0169808,VALID,18.1729,VALID,141,VALID,1.60795,
2008-01-03, 03:08:00,VALID,917.02,VALID,0,VALID,100,VALID,0,VALID,18.1893,VALID,137,VALID,1.40792,
2008-01-03, 03:09:00,VALID,917.01,VALID,0,VALID,100,VALID,0.0509425,VALID,18.1856,VALID,131,VALID,1.3165,
2008-01-03, 03:10:00,VALID,917.006,VALID,0,VALID,100,VALID,0.0339617,VALID,18.1761,VALID,139,VALID,1.08685,
2008-01-03, 03:11:00,VALID,917,VALID,0,VALID,100,VALID,0.0509425,VALID,18.1861,VALID,145,VALID,0.880664,
2008-01-03, 03:12:00,VALID,916.998,VALID,0,VALID,100,VALID,-0.0339617,VALID,18.1775,VALID,141,VALID,0.832667,
2008-01-03, 03:13:00,VALID,916.98,VALID,0,VALID,100,VALID,-0.0679233,VALID,18.1546,VALID,135,VALID,1.12461,
2008-01-03, 03:14:00,VALID,916.958,VALID,0,VALID,100,VALID,-0.0679233,VALID,18.1678,VALID,128,VALID,1.26417,
2008-01-03, 03:15:00,VALID,916.936,VALID,0,VALID,100,VALID,-0.0679233,VALID,18.1939,VALID,131,VALID,1.14081,
2008-01-03, 03:16:00,VALID,916.943,VALID,0,VALID,100,VALID,-0.101885,VALID,18.2039,VALID,132,VALID,0.975074,
2008-01-03, 03:17:00,VALID,916.947,VALID,0,VALID,100,VALID,-0.0509425,VALID,18.2071,VALID,146,VALID,1.18824,
2008-01-03, 03:18:00,VALID,916.945,VALID,0,VALID,100,VALID,-0.101885,VALID,18.1972,VALID,153,VALID,1.15996,
2008-01-03, 03:19:00,VALID,916.942,VALID,0,VALID,100,VALID,-0.101885,VALID,18.1902,VALID,145,VALID,1.106,
2008-01-03, 03:20:00,VALID,916.946,VALID,0,VALID,100,VALID,-0.0509425,VALID,18.19,VALID,142,VALID,1.13858,
2008-01-03, 03:21:00,VALID,916.946,VALID,0,VALID,100,VALID,-0.0849042,VALID,18.2004,VALID,132,VALID,1.20443,
2008-01-03, 03:22:00,VALID,916.943,VALID,0,VALID,99.9967,VALID,-0.101885,VALID,18.1905,VALID,139,VALID,1.05859,
2008-01-03, 03:23:00,VALID,916.941,VALID,0,VALID,99.9265,VALID,-0.0679233,VALID,18.1578,VALID,140,VALID,1.02553,
2008-01-03, 03:24:00,VALID,916.944,VALID,0,VALID,99.8515,VALID,-0.0849042,VALID,18.1548,VALID,150,VALID,1.08665,
2008-01-03, 03:25:00,VALID,916.936,VALID,0,VALID,99.779,VALID,-0.0849042,VALID,18.1379,VALID,148,VALID,1.0545,
2008-01-03, 03:26:00,VALID,916.926,VALID,0,VALID,99.6429,VALID,-0.0509425,VALID,18.1314,VALID,141,VALID,1.17152,
2008-01-03, 03:27:00,VALID,916.909,VALID,0,VALID,99.208,VALID,-0.0679233,VALID,18.1189,VALID,135,VALID,1.28889,
2008-01-03, 03:28:00,VALID,916.919,VALID,0,VALID,98.8113,VALID,-0.0169808,VALID,18.0927,VALID,134,VALID,1.28403,
2008-01-03, 03:29:00,VALID,916.919,VALID,0,VALID,98.5443,VALID,-0.0849042,VALID,18.0899,VALID,136,VALID,1.26467,
2008-01-03, 03:30:00,VALID,916.902,VALID,0,VALID,98.3701,VALID,-0.0849042,VALID,18.0999,VALID,139,VALID,1.14971,
2008-01-03, 03:31:00,VALID,916.911,VALID,0,VALID,98.1641,VALID,-0.0679233,VALID,18.1221,VALID,138,VALID,1.37348,
2008-01-03, 03:32:00,VALID,916.903,VALID,0,VALID,98.0458,VALID,-0.0679233,VALID,18.1221,VALID,145,VALID,1.36026,
2008-01-03, 03:33:00,VALID,916.9,VALID,0,VALID,97.9542,VALID,-0.101885,VALID,18.1383,VALID,140,VALID,1.02689,
2008-01-03, 03:34:00,VALID,916.903,VALID,0,VALID,97.794,VALID,-0.0509425,VALID,18.1284,VALID,139,VALID,1.49043,
2008-01-03, 03:35:00,VALID,916.904,VALID,0,VALID,97.6885,VALID,-0.0849042,VALID,18.1189,VALID,138,VALID,1.21475,
2008-01-03, 03:36:00,VALID,916.917,VALID,0,VALID,97.6821,VALID,-0.0509425,VALID,18.0862,VALID,137,VALID,1.14807,